Find Starlink 35131

NORAD ID: 66075 Int'l Des: 2025-235 Owner: SPXS Country: US Constellation: starlink operational
LEOCIRCULAR

Current View

Loading 3D Globe...

About Starlink 35131

Starlink 35131 (NORAD 66075) is a starlink constellation satellite (v2 mini) launched Oct 19, 2025 by SPXS of US. It operates in LEO, CIRCULAR orbit with a mass of 575.00 kg.

Upcoming Passes

Passes for default location (London). Set your location on the main map for personalized predictions.

Altitude History

Loading altitude history...

Two-Line Element Set

1 66075U 25235T 26255.71806104 .00014260 00000-0 43239-3 0 9995
2 66075 53.1575 93.8954 0001052 119.1832 240.9276 15.34398629 51593
Epoch: Sep 12, 2026 • Age: 11 hours

Current Status

Altitude 465.3 km
Apogee / Perigee N/A
Velocity 7.64 km/s
Sub-Earth Point 38.99°N, 171.37°E
Launch Date Oct 19, 2025
Age 0.8 years
Type internet

Technical Details

Classification Payload
Mass 575.00 kg
Dry Mass 530.00 kg
Total Mass 575.00 kg
Length 0.30 m
Diameter 4.10 m
Span 29.00 m
Shape Box + pan
Manufacturer SPXS
Bus Type Starlink V2MO
Phase Status In Orbit
Owner/State SPXS/US

Most Searched